Header for Extended Forecast Station List Page

Search by: ID | Name | Date | Parm | Value | Avg | % Avg
Sort by: ID | Name | Date | Parm | Value | Avg | % Avg

Enter search or view all records.

Click on id for station plot
#IDNameDateParmValueAvg% Avg
0HWRI1BIG LOST-AT HOWELL RANCH NEAR CHILLY03-23-2015DISCHARGE (KAF)10014867
1MACI1BIG LOST-MACKAY RESERVOIR NEAR MACKAY03-23-2015INFLOW (KAF)8914960
2HALI1BIG WOOD-AT HAILEY03-23-2015DISCHARGE (KAF)17221879
3MAGI1BIG WOOD-MAGIC DAM03-23-2015INFLOW (KAF)14024158
4BITM8BITTERROOT-NEAR MISSOULA03-23-2015DISCHARGE (KAF)1060118889
5BONM8BLACKFOOT-NEAR BONNER03-23-2015DISCHARGE (KAF)63377082
6BIGI1BOISE-AT GLENWOOD BRIDGE03-23-2015DISCHARGE (KAF)39342393
7LUCI1BOISE-LUCKY PEAK DAM03-23-2015INFLOW (KAF)1030MM
8PARI1BOISE-NEAR PARMA03-23-2015DISCHARGE (KAF)36341787
9HOTI1BRUNEAU-NEAR HOT SPRINGS03-23-2015DISCHARGE (KAF)4317724
10BULO3BULLY CREEK-BULLY CREEK DAM03-23-2015INFLOW (KAF)55101
11BUDW1BUMPING-BUMPING LAKE DAM03-23-2015INFLOW (KAF)5811053
12CHDW1CHELAN-LAKE CHELAN DAM03-23-2015INFLOW (KAF)68092973
13ABOM8CLARK FORK-ABOVE MISSOULA03-23-2015DISCHARGE (KAF)1180137386
14DLGM8CLARK FORK-AT DEER LODGE03-23-2015DISCHARGE (KAF)618274
15SRGM8CLARK FORK-AT ST REGIS03-23-2015DISCHARGE (KAF)2956348285
16BELM8CLARK FORK-BELOW MISSOULA03-23-2015DISCHARGE (KAF)2240259986
17CABI1CLARK FORK-CABINET GORGE DAM03-23-2015INFLOW (KAF)8218913590
18NOXM8CLARK FORK-NOXON RAPIDS DAM03-23-2015INFLOW (KAF)7426865886
19DRMM8CLARK FORK-NR DRUMMOND03-23-2015DISCHARGE (KAF)204MM
20CLUW1CLE ELUM-CLE ELUM LAKE03-23-2015INFLOW (KAF)14336639
21ORFI1CLEARWATER-AT OROFINO03-23-2015DISCHARGE (KAF)3729449383
22SPDI1CLEARWATER-AT SPALDING03-23-2015DISCHARGE (KAF)5271683277
23COEI1COEUR D ALENE-COEUR D ALENE LAKE03-23-2015INFLOW (KAF)1308261950
24CIBW1COLUMBIA-AT INTL BOUNDARY03-23-2015DISCHARGE (KAF)24179MM
25BONO3COLUMBIA-BONNEVILLE DAM03-23-2015INFLOW (KAF)43040MM
26CHJW1COLUMBIA-CHIEF JOSEPH DAM03-23-2015INFLOW (KAF)231293052076
27GCDW1COLUMBIA-GRAND COULEE DAM03-23-2015INFLOW (KAF)272813878070
28JDAO3COLUMBIA-JOHN DAY DAM03-23-2015INFLOW (KAF)422046430366
29MCDW1COLUMBIA-MCNARY DAM03-23-2015INFLOW (KAF)407506213666
30PRWW1COLUMBIA-PRIEST RAPIDS DAM03-23-2015INFLOW (KAF)265244019466
31RRHW1COLUMBIA-ROCKY REACH DAM03-23-2015INFLOW (KAF)257453358577
32TDAO3COLUMBIA-THE DALLES DAM03-23-2015INFLOW (KAF)423545831873
33WANW1COLUMBIA-WANAPUM DAM03-23-2015INFLOW (KAF)265213950067
34WELW1COLUMBIA-WELLS DAM03-23-2015INFLOW (KAF)250543309876
35DEDI1DEADWOOD-NEAR LOWMAN03-23-2015INFLOW (KAF)8812869
36MODO3DESCHUTES-AT MOODY NR BIGGS03-23-2015DISCHARGE (KAF)1158139783
37ARDW1ENTIAT-NEAR ARDENVOIR03-23-2015DISCHARGE (KAF)12618667
38CHEI1FALL RIVER-NEAR CHESTER03-23-2015DISCHARGE (KAF)25431980
39CFMM8FLATHEAD-AT COLUMBIA FALLS03-23-2015DISCHARGE (KAF)3984400599
40KERM8FLATHEAD-KERR DAM03-23-2015INFLOW (KAF)4773502395
41TRYO3GRANDE RONDE-TROY03-23-2015DISCHARGE (KAF)547124444
42REXI1HENRYS FORK-AT REXBURG03-23-2015DISCHARGE (KAF)54272175
43ANTI1HENRYS FORK-AT ST. ANTHONY03-23-2015DISCHARGE (KAF)43961771
44IPDI1HENRYS FORK-ISLAND PARK DAM03-23-2015INFLOW (KAF)14119772
45HODO3HOOD-NEAR TUCKER BRIDGE03-23-2015DISCHARGE (KAF)14122862
46SERO3JOHN DAY-AT SERVICE CK03-23-2015DISCHARGE (KAF)27980335
47KADW1KACHESS-KACHESS DAM03-23-2015INFLOW (KAF)3710336
48LAUW1KETTLE-AT LAURIER03-23-2015DISCHARGE (KAF)1566169492
49PITW1KLICKITAT-NEAR PITT03-23-2015DISCHARGE (KAF)29948362
50BFEI1KOOTENAI-AT BONNERS FERRY03-23-2015STAGE (FT)MMM
51LEOI1KOOTENAI-AT LEONIA03-23-2015DISCHARGE (KAF)4040492582
52LYDM8KOOTENAI-LIBBY DAM03-23-2015INFLOW (KAF)4654533687
53LWRI1LITTLE WOOD-LITTLE WOOD DAM03-23-2015INFLOW (KAF)297538
54BERO3MALHEUR-AGENCY VALLEY DAM03-23-2015INFLOW (KAF)294366
55VALO3MALHEUR-NEAR VALE03-23-2015DISCHARGE (KAF)4537
56WRMO3MALHEUR-WARM SPRINGS DAM03-23-2015INFLOW (KAF)214745
57MYKO3MCKAY CREEK-NEAR PILOT ROCK03-23-2015DISCHARGE (KAF)192481
58PATW1METHOW-NEAR PATEROS03-23-2015DISCHARGE (KAF)73380791
59WGCM8MF FLATHEAD-NEAR WEST GLACIER03-23-2015DISCHARGE (KAF)1406148095
60CLFW1NACHES-NEAR CLIFFDEL03-23-2015DISCHARGE (KAF)17535150
61NACW1NACHES-NEAR NACHES03-23-2015DISCHARGE (KAF)24146851
62DWRI1NF CLEARWATER-DWORSHAK DAM03-23-2015INFLOW (KAF)1746265366
63FCFM8NF FLATHEAD-NEAR COLUMBIA FALLS03-23-2015DISCHARGE (KAF)1295151486
64MONO3NF JOHN DAY-AT MONUMENT03-23-2015DISCHARGE (KAF)20256736
65CSDI1NF PAYETTE-CASCADE DAM03-23-2015INFLOW (KAF)28848360
66TONW1OKANOGAN-NEAR TONASKET03-23-2015DISCHARGE (KAF)1189139485
67OWYO3OWYHEE-BELOW OWYHEE DAM03-23-2015INFLOW (KAF)6232119
68EMMI1PAYETTE-NEAR EMMETT03-23-2015DISCHARGE (KAF)708119459
69ALFW1PEND OREILLE-ALBENI FALLS DAM03-23-2015INFLOW (KAF)91841076185
70HOPI1PEND OREILLE-PEND OREILLE LAKE NR HOPE03-23-2015LAKE ELEVATION (FT)MMM
71PIHI1PORTNEUF-AT POCATELLO03-23-2015DISCHARGE (KAF)278432
72PRTI1PRIEST-NEAR PRIEST RIVER03-23-2015DISCHARGE (KAF)72577394
73RCCM8ROCK CREEK-NEAR CLINTON03-23-2015DISCHARGE (KAF)297245121
74WHBI1SALMON-AT WHITEBIRD03-23-2015DISCHARGE (KAF)4315549279
75ARAI1SF BOISE-ANDERSON RANCH DAM03-23-2015INFLOW (KAF)32149864
76HHWM8SF FLATHEAD-HUNGRY HORSE DAM03-23-2015INFLOW (KAF)1607186886
77PLDI1SF SNAKE-PALISADES DAM03-23-2015INFLOW (KAF)2515269893
78SIFI1SNAKE-AB EAGLE ROCK NR IDAHO FALLS03-23-2015DISCHARGE (KAF)24082321104
79AFRI1SNAKE-AMERICAN FALLS RESERVOIR03-23-2015INFLOW (KAF)2168238191
80SNAI1SNAKE-AT BLACKFOOT03-23-2015DISCHARGE (KAF)1716180995
81MILI1SNAKE-AT MILNER03-23-2015DISCHARGE (KAF)18345740
82WEII1SNAKE-AT WEISER03-23-2015DISCHARGE (KAF)2978497060
83SWAI1SNAKE-BELOW SWAN FALLS03-23-2015DISCHARGE (KAF)1628245266
84BRNI1SNAKE-BROWNLEE DAM03-23-2015INFLOW (KAF)3374539863
85IHDW1SNAKE-ICE HARBOR DAM03-23-2015INFLOW (KAF)135912002868
86JLKW4SNAKE-JACKSON LAKE AT DAM03-23-2015INFLOW (KAF)61772285
87LGSW1SNAKE-LITTLE GOOSE DAM03-23-2015INFLOW (KAF)134882003367
88LGDW1SNAKE-LOWER GRANITE DAM03-23-2015INFLOW (KAF)134902003567
89LMNW1SNAKE-LOWER MONUMENTAL DAM03-23-2015INFLOW (KAF)135802016067
90ALPW4SNAKE-NEAR ALPINE03-23-2015DISCHARGE (KAF)1804184598
91ANAW1SNAKE-NEAR ANATONE03-23-2015DISCHARGE (KAF)82211316762
92BFTI1SNAKE-NEAR BLACKFOOT03-23-2015DISCHARGE (KAF)1669173996
93HEII1SNAKE-NEAR HEISE03-23-2015DISCHARGE (KAF)29612667111
94JKSW4SNAKE-NEAR JACKSON03-23-2015DISCHARGE (KAF)1396141299
95SHYI1SNAKE-NEAR SHELLEY03-23-2015DISCHARGE (KAF)2169220798
96LLKW1SPOKANE-AT LONGLAKE03-23-2015INFLOW (KAF)1468310047
97SPOW1SPOKANE-AT SPOKANE03-23-2015DISCHARGE (KAF)1281MM
98SJMI1ST JOE-AT ST MARIES03-23-2015STAGE (FT)MMM
99SATI1ST MARIES-NEAR SANTA03-23-2015DISCHARGE (KAF)5013636
100STRM8ST. REGIS-NEAR ST. REGIS03-23-2015DISCHARGE (KAF)19424978
101TNAW1TEANAWAY-BELOW FORKS03-23-2015DISCHARGE (KAF)3312028
102TEAI1TETON-NEAR ST. ANTHONY03-23-2015DISCHARGE (KAF)335321104
103RILW1TIETON-RIMROCK LAKE NEAR RIMROCK03-23-2015INFLOW (KAF)10318356
104PDTO3UMATILLA-AT PENDLETON03-23-2015DISCHARGE (KAF)5914341
105GIBO3UMATILLA-NEAR GIBBON03-23-2015DISCHARGE (KAF)327046
106UMAO3UMATILLA-NEAR UMATILLA03-23-2015DISCHARGE (KAF)369637
107TCHW1WALLA WALLA-NEAR TOUCHET03-23-2015DISCHARGE (KAF)5412842
108WSRI1WEISER-NEAR WEISER03-23-2015DISCHARGE (KAF)16938244
109PESW1WENATCHEE-AT PESHASTIN03-23-2015DISCHARGE (KAF)759136156
110UNDW1WHITE SALMON-NEAR UNDERWOOD03-23-2015DISCHARGE (KAF)23032471
111RIDI1WILLOW CREEK-RIRIE DAM03-23-2015INFLOW (KAF)184342
112EASW1YAKIMA-AT EASTON03-23-2015DISCHARGE (KAF)9594102
113KIOW1YAKIMA-AT KIONA03-23-2015DISCHARGE (KAF)48688155
114UMTW1YAKIMA-AT UMTANUM03-23-2015DISCHARGE (KAF)58273479
115KEDW1YAKIMA-KEECHELUS LAKE03-23-2015INFLOW (KAF)4911045
116PARW1YAKIMA-NEAR PARKER03-23-2015DISCHARGE (KAF)26449553